| time (UTC) | temp F | wind direction | speed MPH | gust MPH | rain 1hr in | rain 24hr in | rain mn in | humidity % | barometer mb |
| 20260510160203 | 54 | 16 | 2.0 | 8.0 | 0.00 | 0.00 | 0.00 | 39 | 1019.3 |
| 20260510155703 | 54 | 347 | 1.0 | 10.0 | 0.00 | 0.00 | 0.00 | 40 | 1019.3 |
| 20260510155203 | 54 | 28 | 3.0 | 10.0 | 0.00 | 0.00 | 0.00 | 38 | 1019.3 |
| 20260510154703 | 54 | 66 | 0.0 | 7.0 | 0.00 | 0.00 | 0.00 | 44 | 1019.3 |
| 20260510154203 | 54 | 13 | 0.0 | 9.0 | 0.00 | 0.00 | 0.00 | 41 | 1019.2 |
| 20260510153703 | 53 | 12 | 2.0 | 12.0 | 0.00 | 0.00 | 0.00 | 39 | 1019.3 |
| 20260510153203 | 53 | 95 | 0.0 | 12.0 | 0.00 | 0.00 | 0.00 | 43 | 1019.2 |
| 20260510152703 | 53 | 34 | 2.0 | 12.0 | 0.00 | 0.00 | 0.00 | 40 | 1019.3 |
| 20260510152203 | 53 | 56 | 2.0 | 12.0 | 0.00 | 0.00 | 0.00 | 39 | 1019.2 |
| 20260510151703 | 53 | 36 | 3.0 | 12.0 | 0.00 | 0.00 | 0.00 | 39 | 1019.2 |
| 20260510150703 | 52 | 44 | 2.0 | 9.0 | 0.00 | 0.00 | 0.00 | 40 | 1019.2 |
| 20260510145703 | 52 | 32 | 1.0 | 9.0 | 0.00 | 0.00 | 0.00 | 41 | 1019.2 |
| 20260510145203 | 52 | 49 | 0.0 | 9.0 | 0.00 | 0.00 | 0.00 | 44 | 1019.2 |
| 20260510144704 | 52 | 44 | 0.0 | 7.0 | 0.00 | 0.00 | 0.00 | 45 | 1019.1 |
| 20260510144204 | 51 | 25 | 1.0 | 7.0 | 0.00 | 0.00 | 0.00 | 44 | 1019.2 |
| 20260510142703 | 51 | 0 | 0.0 | 10.0 | 0.00 | 0.00 | 0.00 | 46 | 1019.2 |
| 20260510141203 | 50 | 31 | 3.0 | 10.0 | 0.00 | 0.00 | 0.00 | 46 | 1018.9 |
| 20260510140704 | 50 | 29 | 1.0 | 6.0 | 0.00 | 0.00 | 0.00 | 46 | 1018.8 |
| 20260510140204 | 50 | 52 | 1.0 | 6.0 | 0.00 | 0.00 | 0.00 | 46 | 1018.9 |
| 20260510135704 | 49 | 97 | 1.0 | 12.0 | 0.00 | 0.00 | 0.00 | 48 | 1018.9 |
| 20260510135204 | 49 | 26 | 1.0 | 12.0 | 0.00 | 0.00 | 0.00 | 47 | 1018.9 |
| 20260510134703 | 49 | 44 | 2.0 | 7.0 | 0.00 | 0.00 | 0.00 | 47 | 1018.8 |
| 20260510134203 | 49 | 52 | 0.0 | 3.0 | 0.00 | 0.00 | 0.00 | 49 | 1018.8 |
| 20260510133703 | 48 | 50 | 0.0 | 3.0 | 0.00 | 0.00 | 0.00 | 50 | 1018.8 |
| 20260510133203 | 48 | 49 | 0.0 | 3.0 | 0.00 | 0.00 | 0.00 | 50 | 1018.7 |
| 20260510132703 | 48 | 5 | 0.0 | 0.0 | 0.00 | 0.00 | 0.00 | 53 | 1018.7 |
| 20260510132203 | 47 | 4 | 0.0 | 0.0 | 0.00 | 0.00 | 0.00 | 52 | 1018.6 |
| 20260510131703 | 47 | 4 | 0.0 | 0.0 | 0.00 | 0.00 | 0.00 | 51 | 1018.6 |
| 20260510131203 | 47 | 4 | 0.0 | 0.0 | 0.00 | 0.00 | 0.00 | 52 | 1018.6 |
| 20260510130703 | 47 | 4 | 0.0 | 0.0 | 0.00 | 0.00 | 0.00 | 54 | 1018.6 |
| 20260510130203 | 47 | 4 | 0.0 | 0.0 | 0.00 | 0.00 | 0.00 | 52 | 1018.6 |
| 20260510125703 | 47 | 4 | 0.0 | 0.0 | 0.00 | 0.00 | 0.00 | 51 | 1018.6 |
| 20260510125203 | 47 | 4 | 0.0 | 3.0 | 0.00 | 0.00 | 0.00 | 51 | 1018.5 |
| 20260510124704 | 46 | 4 | 1.0 | 3.0 | 0.00 | 0.00 | 0.00 | 52 | 1018.4 |
| 20260510123703 | 46 | 4 | 0.0 | 0.0 | 0.00 | 0.00 | 0.00 | 53 | 1018.3 |
| 20260510123203 | 46 | 4 | 0.0 | 0.0 | 0.00 | 0.00 | 0.00 | 53 | 1018.2 |
| 20260510122703 | 46 | 4 | 0.0 | 0.0 | 0.00 | 0.00 | 0.00 | 54 | 1018.2 |
| 20260510121703 | 45 | 4 | 0.0 | 0.0 | 0.00 | 0.00 | 0.00 | 55 | 1018.1 |
| 20260510121203 | 45 | 4 | 0.0 | 0.0 | 0.00 | 0.00 | 0.00 | 57 | 1018.1 |
| 20260510120703 | 45 | 4 | 0.0 | 2.0 | 0.00 | 0.00 | 0.00 | 55 | 1018.0 |
| 20260510120204 | 45 | 3 | 0.0 | 2.0 | 0.00 | 0.00 | 0.00 | 57 | 1018.0 |
| 20260510115703 | 45 | 2 | 0.0 | 3.0 | 0.00 | 0.00 | 0.00 | 56 | 1017.9 |
| 20260510114704 | 45 | 2 | 0.0 | 1.0 | 0.00 | 0.00 | 0.00 | 55 | 1017.7 |
| 20260510114204 | 45 | 0 | 0.0 | 2.0 | 0.00 | 0.00 | 0.00 | 57 | 1017.7 |
| 20260510113703 | 45 | 0 | 0.0 | 2.0 | 0.00 | 0.00 | 0.00 | 56 | 1017.6 |
| 20260510113204 | 45 | 0 | 0.0 | 2.0 | 0.00 | 0.00 | 0.00 | 55 | 1017.6 |
| 20260510112703 | 45 | 331 | 0.0 | 2.0 | 0.00 | 0.00 | 0.00 | 54 | 1017.5 |
| 20260510111704 | 45 | 325 | 0.0 | 0.0 | 0.00 | 0.00 | 0.00 | 54 | 1017.3 |
| 20260510111204 | 45 | 325 | 0.0 | 0.0 | 0.00 | 0.00 | 0.00 | 54 | 1017.2 |
| 20260510105704 | 44 | 325 | 0.0 | 0.0 | 0.00 | 0.00 | 0.00 | 56 | 1017.0 |
| 20260510105204 | 44 | 325 | 0.0 | 0.0 | 0.00 | 0.00 | 0.00 | 56 | 1016.9 |
| 20260510104703 | 44 | 325 | 0.0 | 0.0 | 0.00 | 0.00 | 0.00 | 56 | 1016.8 |
| 20260510104203 | 44 | 325 | 0.0 | 0.0 | 0.00 | 0.00 | 0.00 | 56 | 1016.8 |
| 20260510103704 | 44 | 325 | 0.0 | 0.0 | 0.00 | 0.00 | 0.00 | 56 | 1016.7 |
| 20260510102703 | 44 | 325 | 0.0 | 0.0 | 0.00 | 0.00 | 0.00 | 56 | 1016.6 |
| 20260510101704 | 44 | 325 | 0.0 | 0.0 | 0.00 | 0.00 | 0.00 | 55 | 1016.4 |
| 20260510101204 | 44 | 325 | 0.0 | 0.0 | 0.00 | 0.00 | 0.00 | 55 | 1016.4 |
| 20260510100703 | 44 | 325 | 0.0 | 0.0 | 0.00 | 0.00 | 0.00 | 55 | 1016.5 |
| 20260510100203 | 44 | 325 | 0.0 | 0.0 | 0.00 | 0.00 | 0.00 | 55 | 1016.4 |
| 20260510095704 | 44 | 325 | 0.0 | 1.0 | 0.00 | 0.00 | 0.00 | 55 | 1016.4 |
| 20260510095204 | 44 | 325 | 0.0 | 1.0 | 0.00 | 0.00 | 0.00 | 56 | 1016.3 |
| 20260510094703 | 44 | 324 | 0.0 | 0.0 | 0.00 | 0.00 | 0.00 | 56 | 1016.2 |
| 20260510094203 | 44 | 324 | 0.0 | 0.0 | 0.00 | 0.00 | 0.00 | 56 | 1016.1 |
| 20260510093704 | 44 | 324 | 0.0 | 0.0 | 0.00 | 0.00 | 0.00 | 56 | 1016.1 |
| 20260510093203 | 44 | 324 | 0.0 | 0.0 | 0.00 | 0.00 | 0.00 | 56 | 1015.9 |
| 20260510092703 | 44 | 324 | 0.0 | 0.0 | 0.00 | 0.00 | 0.00 | 55 | 1015.8 |
| 20260510092204 | 45 | 324 | 0.0 | 0.0 | 0.00 | 0.00 | 0.00 | 54 | 1015.9 |
| 20260510091703 | 45 | 324 | 0.0 | 0.0 | 0.00 | 0.00 | 0.00 | 54 | 1015.9 |
| 20260510091203 | 45 | 324 | 0.0 | 0.0 | 0.00 | 0.00 | 0.00 | 54 | 1015.8 |
| 20260510090704 | 45 | 324 | 0.0 | 0.0 | 0.00 | 0.00 | 0.00 | 54 | 1015.8 |
| 20260510090204 | 45 | 324 | 0.0 | 0.0 | 0.00 | 0.00 | 0.00 | 54 | 1015.8 |
| 20260510085703 | 45 | 324 | 0.0 | 0.0 | 0.00 | 0.00 | 0.00 | 54 | 1015.8 |
| 20260510085203 | 45 | 324 | 0.0 | 0.0 | 0.00 | 0.00 | 0.00 | 54 | 1015.8 |
| 20260510084704 | 45 | 324 | 0.0 | 0.0 | 0.00 | 0.00 | 0.00 | 54 | 1015.7 |
| 20260510084205 | 45 | 324 | 0.0 | 0.0 | 0.00 | 0.00 | 0.00 | 53 | 1015.5 |
| 20260510083703 | 45 | 324 | 0.0 | 0.0 | 0.00 | 0.00 | 0.00 | 53 | 1015.4 |
| 20260510083203 | 45 | 324 | 0.0 | 3.0 | 0.00 | 0.00 | 0.00 | 53 | 1015.3 |
| 20260510082703 | 45 | 324 | 0.0 | 3.0 | 0.00 | 0.00 | 0.00 | 53 | 1015.3 |
| 20260510082204 | 45 | 347 | 0.0 | 3.0 | 0.00 | 0.00 | 0.00 | 54 | 1015.3 |
| 20260510081704 | 45 | 348 | 0.0 | 0.0 | 0.00 | 0.00 | 0.00 | 53 | 1015.2 |
| 20260510081202 | 45 | 348 | 0.0 | 0.0 | 0.00 | 0.00 | 0.00 | 53 | 1015.2 |
| 20260510080703 | 45 | 348 | 0.0 | 0.0 | 0.00 | 0.00 | 0.00 | 52 | 1015.2 |
| 20260510080202 | 45 | 348 | 0.0 | 0.0 | 0.00 | 0.00 | 0.00 | 52 | 1015.2 |
| 20260510075702 | 45 | 348 | 0.0 | 0.0 | 0.00 | 0.00 | 0.00 | 52 | 1015.1 |
| 20260510075202 | 45 | 348 | 0.0 | 0.0 | 0.00 | 0.00 | 0.00 | 54 | 1015.1 |
| 20260510074702 | 45 | 348 | 0.0 | 0.0 | 0.00 | 0.00 | 0.00 | 53 | 1015.0 |
| 20260510074202 | 45 | 348 | 0.0 | 0.0 | 0.00 | 0.00 | 0.00 | 53 | 1015.0 |
| 20260510073702 | 45 | 348 | 0.0 | 0.0 | 0.00 | 0.00 | 0.00 | 53 | 1015.0 |
| 20260510073203 | 46 | 348 | 0.0 | 0.0 | 0.00 | 0.00 | 0.00 | 53 | 1015.0 |
| 20260510072203 | 46 | 348 | 0.0 | 0.0 | 0.00 | 0.00 | 0.00 | 51 | 1015.1 |
| 20260510071702 | 46 | 348 | 0.0 | 0.0 | 0.00 | 0.00 | 0.00 | 50 | 1015.1 |
| 20260510071202 | 46 | 348 | 0.0 | 0.0 | 0.00 | 0.00 | 0.00 | 50 | 1015.1 |
| 20260510070702 | 46 | 348 | 0.0 | 0.0 | 0.00 | 0.00 | 0.00 | 50 | 1015.2 |
| 20260510070202 | 46 | 348 | 0.0 | 0.0 | 0.00 | 0.00 | 0.00 | 49 | 1015.2 |
| 20260510065702 | 46 | 348 | 0.0 | 0.0 | 0.00 | 0.00 | 0.00 | 49 | 1015.0 |
| 20260510065202 | 46 | 348 | 0.0 | 0.0 | 0.00 | 0.00 | 0.00 | 48 | 1015.1 |
| 20260510064702 | 46 | 348 | 0.0 | 0.0 | 0.00 | 0.00 | 0.00 | 49 | 1015.1 |
| 20260510064202 | 47 | 348 | 0.0 | 0.0 | 0.00 | 0.00 | 0.00 | 48 | 1015.0 |
| 20260510063702 | 47 | 348 | 0.0 | 0.0 | 0.00 | 0.00 | 0.00 | 48 | 1015.0 |
| 20260510063202 | 47 | 348 | 0.0 | 0.0 | 0.00 | 0.00 | 0.00 | 48 | 1015.0 |
| 20260510062702 | 47 | 348 | 0.0 | 0.0 | 0.00 | 0.00 | 0.00 | 48 | 1015.0 |
| 20260510062203 | 47 | 348 | 0.0 | 0.0 | 0.00 | 0.00 | 0.00 | 47 | 1015.0 |
| 20260510061702 | 47 | 348 | 0.0 | 0.0 | 0.00 | 0.00 | 0.00 | 47 | 1015.0 |
| 20260510061203 | 47 | 348 | 0.0 | 0.0 | 0.00 | 0.00 | 0.00 | 46 | 1015.0 |
| 20260510060203 | 48 | 348 | 0.0 | 0.0 | 0.00 | 0.00 | 0.00 | 45 | 1015.0 |
| 20260510055703 | 48 | 348 | 0.0 | 0.0 | 0.00 | 0.00 | 0.00 | 45 | 1015.0 |
| 20260510055202 | 48 | 348 | 0.0 | 0.0 | 0.00 | 0.00 | 0.00 | 45 | 1014.9 |
| 20260510054203 | 48 | 348 | 0.0 | 0.0 | 0.00 | 0.00 | 0.00 | 44 | 1014.9 |
| 20260510053702 | 48 | 348 | 0.0 | 0.0 | 0.00 | 0.00 | 0.00 | 43 | 1014.9 |
| 20260510053203 | 48 | 348 | 0.0 | 0.0 | 0.00 | 0.00 | 0.00 | 43 | 1014.8 |
| 20260510052702 | 48 | 348 | 0.0 | 0.0 | 0.00 | 0.00 | 0.00 | 44 | 1014.8 |
| 20260510052202 | 48 | 348 | 0.0 | 0.0 | 0.00 | 0.00 | 0.00 | 44 | 1014.6 |
| 20260510051702 | 48 | 348 | 0.0 | 0.0 | 0.00 | 0.00 | 0.00 | 41 | 1014.6 |
| 20260510051202 | 48 | 348 | 0.0 | 0.0 | 0.00 | 0.00 | 0.00 | 41 | 1014.6 |
| 20260510050203 | 48 | 348 | 0.0 | 0.0 | 0.00 | 0.00 | 0.00 | 42 | 1014.6 |
| 20260510045202 | 49 | 348 | 0.0 | 0.0 | 0.00 | 0.00 | 0.00 | 41 | 1014.5 |
| 20260510044704 | 49 | 348 | 0.0 | 0.0 | 0.00 | 0.00 | 0.00 | 42 | 1014.5 |
| 20260510044202 | 49 | 348 | 0.0 | 0.0 | 0.00 | 0.00 | 0.00 | 41 | 1014.6 |
| 20260510043703 | 49 | 348 | 0.0 | 3.0 | 0.00 | 0.00 | 0.00 | 39 | 1014.6 |
| 20260510043203 | 49 | 348 | 0.0 | 3.0 | 0.00 | 0.00 | 0.00 | 39 | 1014.6 |
| 20260510042703 | 49 | 346 | 0.0 | 3.0 | 0.00 | 0.00 | 0.00 | 38 | 1014.6 |
| 20260510042203 | 49 | 345 | 0.0 | 3.0 | 0.00 | 0.00 | 0.00 | 38 | 1014.6 |
| 20260510041703 | 50 | 13 | 0.0 | 3.0 | 0.00 | 0.00 | 0.00 | 38 | 1014.6 |
| 20260510041203 | 50 | 13 | 0.0 | 3.0 | 0.00 | 0.00 | 0.00 | 37 | 1014.6 |
| 20260510040702 | 50 | 13 | 1.0 | 3.0 | 0.00 | 0.00 | 0.00 | 37 | 1014.6 |
| 20260510034702 | 51 | 0 | 0.0 | 3.0 | 0.00 | 0.00 | 0.00 | 36 | 1014.4 |
| 20260510033702 | 51 | 0 | 0.0 | 6.0 | 0.00 | 0.00 | 0.00 | 35 | 1014.2 |
| 20260510033202 | 51 | 0 | 0.0 | 5.0 | 0.00 | 0.00 | 0.00 | 35 | 1014.1 |
| 20260510032702 | 51 | 16 | 1.0 | 6.0 | 0.00 | 0.00 | 0.00 | 34 | 1014.1 |
| 20260510031703 | 51 | 6 | 1.0 | 6.0 | 0.00 | 0.00 | 0.00 | 34 | 1014.0 |
| 20260510031203 | 52 | 3 | 1.0 | 3.0 | 0.00 | 0.00 | 0.00 | 34 | 1013.9 |
| 20260510030702 | 52 | 359 | 0.0 | 3.0 | 0.00 | 0.00 | 0.00 | 33 | 1013.8 |
| 20260510030203 | 52 | 358 | 1.0 | 3.0 | 0.00 | 0.00 | 0.00 | 33 | 1013.7 |
| 20260510025702 | 52 | 358 | 0.0 | 6.0 | 0.00 | 0.00 | 0.00 | 33 | 1013.7 |
| 20260510025203 | 52 | 357 | 1.0 | 7.0 | 0.00 | 0.00 | 0.00 | 33 | 1013.6 |
| 20260510024702 | 52 | 25 | 0.0 | 7.0 | 0.00 | 0.00 | 0.00 | 33 | 1013.5 |
| 20260510024203 | 53 | 22 | 2.0 | 6.0 | 0.00 | 0.00 | 0.00 | 32 | 1013.4 |
| 20260510023703 | 53 | 2 | 2.0 | 9.0 | 0.00 | 0.00 | 0.00 | 32 | 1013.3 |
| 20260510023202 | 53 | 35 | 1.0 | 9.0 | 0.00 | 0.00 | 0.00 | 32 | 1013.1 |
| 20260510022703 | 53 | 6 | 1.0 | 9.0 | 0.00 | 0.00 | 0.00 | 32 | 1013.0 |
| 20260510022203 | 53 | 9 | 2.0 | 6.0 | 0.00 | 0.00 | 0.00 | 31 | 1012.9 |
| 20260510021702 | 53 | 0 | 0.0 | 5.0 | 0.00 | 0.00 | 0.00 | 31 | 1012.8 |
| 20260510021202 | 53 | 13 | 1.0 | 9.0 | 0.00 | 0.00 | 0.00 | 31 | 1012.7 |
| 20260510020703 | 54 | 8 | 2.0 | 12.0 | 0.00 | 0.00 | 0.00 | 30 | 1012.7 |
| 20260510020203 | 54 | 18 | 2.0 | 12.0 | 0.00 | 0.00 | 0.00 | 30 | 1012.6 |
| 20260510015703 | 54 | 4 | 2.0 | 8.0 | 0.00 | 0.00 | 0.00 | 31 | 1012.5 |
| 20260510015202 | 54 | 19 | 0.0 | 12.0 | 0.00 | 0.00 | 0.00 | 30 | 1012.3 |
| 20260510014702 | 54 | 16 | 1.0 | 12.0 | 0.00 | 0.00 | 0.00 | 30 | 1012.2 |
| 20260510013703 | 55 | 4 | 1.0 | 9.0 | 0.00 | 0.00 | 0.00 | 29 | 1012.0 |
| 20260510013204 | 55 | 359 | 2.0 | 9.0 | 0.00 | 0.00 | 0.00 | 28 | 1011.9 |
| 20260510012703 | 55 | 33 | 5.0 | 9.0 | 0.00 | 0.00 | 0.00 | 28 | 1011.9 |
| 20260510011702 | 55 | 16 | 4.0 | 13.0 | 0.00 | 0.00 | 0.00 | 28 | 1011.8 |
| 20260510011203 | 56 | 18 | 3.0 | 10.0 | 0.00 | 0.00 | 0.00 | 28 | 1011.7 |
| 20260510010203 | 56 | 14 | 2.0 | 12.0 | 0.00 | 0.00 | 0.00 | 27 | 1011.5 |
| 20260510005202 | 56 | 10 | 3.0 | 12.0 | 0.00 | 0.00 | 0.00 | 27 | 1011.4 |
| 20260510004702 | 57 | 10 | 3.0 | 16.0 | 0.00 | 0.00 | 0.00 | 26 | 1011.4 |
| 20260510004204 | 57 | 10 | 4.0 | 16.0 | 0.00 | 0.00 | 0.00 | 26 | 1011.3 |
| 20260510003703 | 57 | 25 | 5.0 | 14.0 | 0.00 | 0.00 | 0.00 | 26 | 1011.2 |
| 20260510002702 | 57 | 17 | 7.0 | 20.0 | 0.00 | 0.00 | 0.00 | 25 | 1011.1 |
| 20260510002202 | 57 | 34 | 2.0 | 13.0 | 0.00 | 0.00 | 0.00 | 26 | 1011.1 |
| 20260510001203 | 58 | 2 | 4.0 | 13.0 | 0.00 | 0.00 | 0.00 | 25 | 1011.1 |
| 20260510000702 | 58 | 4 | 2.0 | 12.0 | 0.00 | 0.00 | 0.00 | 25 | 1011.0 |
| 20260510000204 | 58 | 0 | 2.0 | 12.0 | 0.00 | 0.00 | 0.00 | 25 | 1010.9 |
| 20260509235702 | 58 | 9 | 2.0 | 12.0 | 0.00 | 0.00 | 0.00 | 25 | 1010.7 |
| 20260509235202 | 58 | 10 | 1.0 | 20.0 | 0.00 | 0.00 | 0.00 | 25 | 1010.7 |
| 20260509234702 | 59 | 22 | 7.0 | 20.0 | 0.00 | 0.00 | 0.00 | 23 | 1010.7 |
| 20260509234204 | 59 | 25 | 3.0 | 15.0 | 0.00 | 0.00 | 0.00 | 24 | 1010.6 |
| 20260509233703 | 59 | 354 | 7.0 | 17.0 | 0.00 | 0.00 | 0.00 | 24 | 1010.6 |
| 20260509233203 | 59 | 25 | 4.0 | 17.0 | 0.00 | 0.00 | 0.00 | 24 | 1010.5 |
| 20260509232703 | 59 | 62 | 2.0 | 12.0 | 0.00 | 0.00 | 0.00 | 27 | 1010.5 |
| 20260509232203 | 59 | 54 | 1.0 | 21.0 | 0.00 | 0.00 | 0.00 | 26 | 1010.4 |
| 20260509231703 | 59 | 5 | 4.0 | 21.0 | 0.00 | 0.00 | 0.00 | 25 | 1010.5 |
| 20260509231204 | 59 | 5 | 5.0 | 21.0 | 0.00 | 0.00 | 0.00 | 24 | 1010.4 |
| 20260509230703 | 59 | 356 | 2.0 | 20.0 | 0.00 | 0.00 | 0.00 | 25 | 1010.3 |
| 20260509225703 | 59 | 358 | 3.0 | 16.0 | 0.00 | 0.00 | 0.00 | 24 | 1010.2 |
| 20260509225202 | 59 | 36 | 2.0 | 20.0 | 0.00 | 0.00 | 0.00 | 25 | 1010.2 |
| 20260509224703 | 59 | 26 | 7.0 | 20.0 | 0.00 | 0.00 | 0.00 | 22 | 1010.2 |
| 20260509224205 | 59 | 18 | 7.0 | 20.0 | 0.00 | 0.00 | 0.00 | 22 | 1010.0 |
| 20260509222703 | 60 | 61 | 3.0 | 14.0 | 0.00 | 0.00 | 0.00 | 25 | 1009.9 |
| 20260509222203 | 60 | 36 | 3.0 | 18.0 | 0.00 | 0.00 | 0.00 | 24 | 1009.9 |
| 20260509221703 | 60 | 47 | 5.0 | 18.0 | 0.00 | 0.00 | 0.00 | 22 | 1009.9 |
| 20260509221202 | 60 | 32 | 3.0 | 15.0 | 0.00 | 0.00 | 0.00 | 23 | 1009.8 |
| 20260509220703 | 60 | 6 | 4.0 | 14.0 | 0.00 | 0.00 | 0.00 | 22 | 1009.7 |
| 20260509220203 | 60 | 346 | 6.0 | 14.0 | 0.00 | 0.00 | 0.00 | 24 | 1009.7 |
| 20260509215703 | 60 | 38 | 2.0 | 16.0 | 0.00 | 0.00 | 0.00 | 25 | 1009.6 |
| 20260509215202 | 60 | 30 | 4.0 | 16.0 | 0.00 | 0.00 | 0.00 | 22 | 1009.7 |
| 20260509213702 | 61 | 355 | 2.0 | 12.0 | 0.00 | 0.00 | 0.00 | 23 | 1009.6 |
| 20260509213203 | 61 | 36 | 3.0 | 15.0 | 0.00 | 0.00 | 0.00 | 26 | 1009.7 |
| 20260509212703 | 61 | 17 | 2.0 | 16.0 | 0.00 | 0.00 | 0.00 | 24 | 1009.5 |
| 20260509212203 | 61 | 358 | 5.0 | 16.0 | 0.00 | 0.00 | 0.00 | 22 | 1009.5 |
| 20260509211703 | 61 | 10 | 3.0 | 16.0 | 0.00 | 0.00 | 0.00 | 24 | 1009.5 |
| 20260509211203 | 62 | 19 | 5.0 | 18.0 | 0.00 | 0.00 | 0.00 | 23 | 1009.5 |
| 20260509210703 | 62 | 354 | 3.0 | 18.0 | 0.00 | 0.00 | 0.00 | 24 | 1009.4 |
| 20260509210203 | 62 | 9 | 5.0 | 14.0 | 0.00 | 0.00 | 0.00 | 22 | 1009.4 |
| 20260509205702 | 62 | 4 | 1.0 | 22.0 | 0.00 | 0.00 | 0.00 | 24 | 1009.4 |
| 20260509204703 | 61 | 21 | 5.0 | 22.0 | 0.00 | 0.00 | 0.00 | 23 | 1009.3 |
| 20260509204203 | 61 | 4 | 7.0 | 20.0 | 0.00 | 0.00 | 0.00 | 23 | 1009.3 |
| 20260509203704 | 61 | 17 | 2.0 | 17.0 | 0.00 | 0.00 | 0.00 | 24 | 1009.3 |
| 20260509202703 | 61 | 8 | 5.0 | 24.0 | 0.00 | 0.00 | 0.00 | 23 | 1009.3 |
| 20260509202202 | 61 | 46 | 2.0 | 20.0 | 0.00 | 0.00 | 0.00 | 25 | 1009.3 |
| 20260509201203 | 61 | 49 | 7.0 | 14.0 | 0.00 | 0.00 | 0.00 | 22 | 1009.1 |
| 20260509200703 | 61 | 16 | 3.0 | 20.0 | 0.00 | 0.00 | 0.00 | 25 | 1009.1 |
| 20260509200203 | 61 | 44 | 3.0 | 20.0 | 0.00 | 0.00 | 0.00 | 23 | 1009.1 |
| 20260509195703 | 61 | 10 | 5.0 | 16.0 | 0.00 | 0.00 | 0.00 | 24 | 1009.1 |
| 20260509195203 | 61 | 14 | 4.0 | 15.0 | 0.00 | 0.00 | 0.00 | 24 | 1009.1 |
| 20260509194203 | 61 | 6 | 2.0 | 12.0 | 0.00 | 0.00 | 0.00 | 26 | 1008.9 |
| 20260509193703 | 60 | 12 | 5.0 | 14.0 | 0.00 | 0.00 | 0.00 | 26 | 1009.0 |
| 20260509193204 | 60 | 35 | 4.0 | 14.0 | 0.00 | 0.00 | 0.00 | 26 | 1008.8 |
| 20260509192702 | 59 | 38 | 1.0 | 20.0 | 0.00 | 0.00 | 0.00 | 28 | 1008.8 |
| 20260509191703 | 59 | 7 | 6.0 | 20.0 | 0.00 | 0.00 | 0.00 | 26 | 1008.8 |
| 20260509191204 | 60 | 0 | 6.0 | 20.0 | 0.00 | 0.00 | 0.00 | 26 | 1008.9 |
| 20260509190704 | 60 | 12 | 6.0 | 16.0 | 0.00 | 0.00 | 0.00 | 26 | 1008.7 |
| 20260509190203 | 60 | 50 | 3.0 | 13.0 | 0.00 | 0.00 | 0.00 | 29 | 1008.6 |
| 20260509185703 | 60 | 354 | 5.0 | 12.0 | 0.00 | 0.00 | 0.00 | 30 | 1008.5 |
| 20260509185203 | 59 | 23 | 2.0 | 12.0 | 0.00 | 0.00 | 0.00 | 30 | 1008.4 |
| 20260509184703 | 59 | 62 | 2.0 | 15.0 | 0.00 | 0.00 | 0.00 | 29 | 1008.3 |
| 20260509184203 | 59 | 32 | 3.0 | 15.0 | 0.00 | 0.00 | 0.00 | 29 | 1008.4 |
| 20260509183204 | 59 | 352 | 1.0 | 18.0 | 0.00 | 0.00 | 0.00 | 32 | 1008.4 |
| 20260509182703 | 58 | 1 | 4.0 | 18.0 | 0.00 | 0.00 | 0.00 | 30 | 1008.4 |
| 20260509182203 | 58 | 29 | 2.0 | 17.0 | 0.00 | 0.00 | 0.00 | 33 | 1008.3 |
| 20260509181703 | 58 | 358 | 2.0 | 18.0 | 0.00 | 0.00 | 0.00 | 33 | 1008.2 |
| 20260509181203 | 58 | 22 | 6.0 | 18.0 | 0.00 | 0.00 | 0.00 | 33 | 1008.2 |
| 20260509180703 | 58 | 55 | 3.0 | 13.0 | 0.00 | 0.00 | 0.00 | 33 | 1008.1 |
| 20260509180203 | 58 | 32 | 1.0 | 14.0 | 0.00 | 0.00 | 0.00 | 35 | 1008.1 |
| 20260509175203 | 57 | 34 | 5.0 | 16.0 | 0.00 | 0.00 | 0.00 | 32 | 1008.2 |
| 20260509174703 | 57 | 23 | 2.0 | 14.0 | 0.00 | 0.00 | 0.00 | 32 | 1008.2 |
| 20260509174203 | 57 | 17 | 6.0 | 17.0 | 0.00 | 0.00 | 0.00 | 33 | 1008.2 |
| 20260509173703 | 57 | 3 | 4.0 | 20.0 | 0.00 | 0.00 | 0.00 | 33 | 1008.2 |
| 20260509173203 | 57 | 351 | 4.0 | 20.0 | 0.00 | 0.00 | 0.00 | 34 | 1008.2 |
| 20260509172703 | 57 | 4 | 5.0 | 17.0 | 0.00 | 0.00 | 0.00 | 34 | 1008.0 |
| 20260509171703 | 57 | 19 | 4.0 | 15.0 | 0.00 | 0.00 | 0.00 | 34 | 1008.0 |
| 20260509171203 | 57 | 23 | 2.0 | 15.0 | 0.00 | 0.00 | 0.00 | 34 | 1008.0 |
| 20260509170703 | 57 | 32 | 6.0 | 15.0 | 0.00 | 0.00 | 0.00 | 34 | 1007.8 |
| 20260509170203 | 57 | 49 | 5.0 | 15.0 | 0.00 | 0.00 | 0.00 | 35 | 1007.8 |
| 20260509165203 | 57 | 25 | 7.0 | 16.0 | 0.00 | 0.00 | 0.00 | 36 | 1007.7 |
| 20260509164703 | 56 | 41 | 3.0 | 14.0 | 0.00 | 0.00 | 0.00 | 36 | 1007.6 |
| 20260509164203 | 56 | 44 | 3.0 | 17.0 | 0.00 | 0.00 | 0.00 | 36 | 1007.6 |
| 20260509163203 | 56 | 6 | 2.0 | 18.0 | 0.00 | 0.00 | 0.00 | 35 | 1007.4 |
| 20260509162703 | 56 | 27 | 7.0 | 21.0 | 0.00 | 0.00 | 0.00 | 33 | 1007.3 |
| 20260509162203 | 56 | 31 | 7.0 | 21.0 | 0.00 | 0.00 | 0.00 | 33 | 1007.3 |
| 20260509161703 | 56 | 20 | 9.0 | 17.0 | 0.00 | 0.00 | 0.00 | 33 | 1007.2 |
| 20260509160703 | 56 | 63 | 4.0 | 25.0 | 0.00 | 0.00 | 0.00 | 36 | 1007.2 |